Location: Mentone
(34.5413°N, 85.5351°W)
Time: 07:45:11
(UTC-05:00)

S-56A Canister/Altair - Visible Passes

Search period start: 30 April 2017 00:00
Search period end: 10 May 2017 00:00
Orbit: 637 x 2497 km, 38.9° (Epoch: 28 April)

Date Brightness Start Highest point End Pass type
(mag) Time Alt. Az. Time Alt. Az. Time Alt. Az.
30 Apr 9.7 00:09:38 10° WNW 00:20:46 74° N 00:35:44 10° E visible
30 Apr 9.7 02:14:49 10° WNW 02:28:03 80° SSW 02:43:15 10° ESE visible
30 Apr 10.2 04:21:15 10° WNW 04:34:12 40° SW 04:47:06 10° SSE visible
30 Apr 9.1 21:32:40 10° WSW 21:40:55 85° NNW 21:53:35 10° ENE visible
30 Apr 9.6 23:37:04 10° W 23:47:31 73° N 00:02:05 10° E visible
01 May 9.7 01:42:02 10° WNW 01:54:41 84° SSW 02:10:00 10° ESE visible
01 May 10.1 03:48:01 10° WNW 04:01:01 44° SW 04:14:31 10° SSE visible
01 May 8.9 21:00:24 10° WSW 21:08:04 89° NNW 21:20:01 10° ENE visible
01 May 9.5 23:04:34 10° W 23:14:19 71° N 23:28:24 10° E visible
02 May 9.6 01:09:19 10° WNW 01:21:21 89° SSW 01:36:37 10° ESE visible
02 May 10.0 03:14:54 10° WNW 03:27:48 49° SW 03:41:48 10° SSE visible
02 May 10.9 05:25:09 10° W 05:32:49 16° SW 05:40:24 10° SSW visible
02 May 8.7 20:28:13 10° WSW 20:35:20 86° SSE 20:46:28 10° ENE visible
02 May 9.4 22:32:08 10° W 22:41:13 71° N 22:54:41 10° E visible
03 May 9.5 00:36:42 10° WNW 00:48:03 88° NNE 01:03:09 10° ESE visible
03 May 9.9 02:41:56 10° WNW 02:54:34 53° SW 03:08:56 10° SE visible
03 May 10.8 04:50:50 10° W 04:59:51 19° SW 05:08:56 10° S visible
03 May 8.6 19:56:04 10° WSW 20:02:42 79° SSE 20:13:00 10° ENE visible
03 May 9.3 21:59:46 10° W 22:08:12 70° N 22:21:00 10° E visible
04 May 9.5 00:04:08 10° WNW 00:14:50 84° NNE 00:29:36 10° ESE visible
04 May 9.8 02:09:04 10° WNW 02:23:10 55° S 02:35:57 10° SE visible
04 May 10.6 04:21:22 18° WSW 04:26:49 23° SW 04:37:04 10° S visible
04 May 9.2 21:27:27 10° W 21:35:17 70° N 21:47:21 10° E visible
04 May 9.4 23:31:39 10° WNW 23:41:40 80° NNE 23:47:15 43° E visible
05 May 9.9 01:36:19 10° WNW 01:57:55 25° SE 02:02:50 10° SE visible
05 May 10.6 03:55:40 25° SW 03:55:40 25° SW 04:04:55 10° S visible
05 May 9.0 20:55:10 10° W 21:02:26 71° N 21:13:44 10° ENE visible
05 May 9.3 22:59:14 10° WNW 23:08:34 77° NNE 23:14:44 37° E visible
06 May 9.7 01:03:39 10° WNW 01:30:28 - SE 01:12:04 56° WSW visible
06 May 10.9 03:28:08 19° S 03:28:08 19° S 03:32:33 10° S visible
06 May 8.9 20:22:57 10° W 20:29:41 72° N 20:40:12 10° ENE visible
06 May 9.2 22:26:53 10° WNW 22:35:34 74° NNE 22:42:43 30° E visible
07 May 9.5 00:31:05 10° WNW 00:40:04 65° WSW 00:40:04 65° WSW visible
07 May 11.1 02:36:53 10° W 02:59:52 10° SSE 02:59:58 10° SSE visible
07 May 8.7 19:50:45 10° W 19:57:01 75° NNW 20:06:46 10° ENE visible
07 May 9.2 21:54:34 10° WNW 22:02:37 71° N 22:10:58 23° E visible
07 May 9.3 23:58:35 10° WNW 00:08:20 75° SW 00:08:20 75° SW visible
08 May 10.9 02:03:55 10° W 02:31:05 - SSE 02:05:42 16° W visible
08 May 9.1 21:22:18 10° WNW 21:29:46 68° N 21:39:22 16° E visible
08 May 9.2 23:26:10 10° WNW 23:35:36 80° SSW 23:36:45 74° SSE visible
09 May 10.7 01:31:04 10° W 01:34:07 21° W 01:34:07 21° W visible
09 May 9.0 20:50:04 10° WNW 20:56:59 66° N 21:07:42 10° E visible
09 May 9.1 22:53:48 10° WNW 23:02:38 85° SSW 23:05:16 61° ESE visible
